Pittsburg, KS

6:14 PM CST on December 08, 2016 (GMT -0600)
Atkinson Municipal

Weather History for KPTS - August, 2013

Change the Weather History Date:

Monday, August 5, 2013

  Actual Average (KJLN) Record (KJLN)
Temperature  
Mean Temperature 80 °F -  
Max Temperature 91 °F 88 °F 107 °F (2011)
Min Temperature 70 °F 68 °F 55 °F (1974)
Cooling Degree Days 16    
Growing Degree Days 30 (Base 50)    
Moisture  
Dew Point 79 °F    
Average Humidity 82    
Maximum Humidity 100    
Minimum Humidity 61    
Precipitation  
Precipitation 0.13 in - - ()
Sea Level Pressure  
Sea Level Pressure 29.92 in    
Wind  
Wind Speed 5 mph (SSW)    
Max Wind Speed 15 mph    
Max Gust Speed 22 mph    
Visibility 9 miles    
Events Thunderstorm    
Averages and records for this station are not official NWS values.
T = Trace of Precipitation, MM = Missing Value Source: NWS Daily Summary

Daily Weather History Graph

Daily Weather History Graph

Search for Another Location

Airport or City:

Trip Planner

Search our weather history database for the weather conditions in past years. The results will help you decide how hot, cold, wet, or windy it might be!

Date:

Astronomy

Aug. 05, 2013 Rise Set
Actual Time 6:26 AM CDT 8:22 PM CDT
Civil Twilight 5:58 AM CDT 8:50 PM CDT
Nautical Twilight 5:23 AM CDT 9:25 PM CDT
Astronomical Twilight 4:46 AM CDT 10:02 PM CDT
Moon 5:22 AM CDT (8/5) 7:24 PM CDT (8/5)
Length of Visible Light 14h 52m
Length of Day
13h 55m
Waning Crescent, 1% of the Moon is Illuminated
Aug 5
Waning Crescent
Aug 6
New
Aug 14
First Quarter
Aug 20
Full
Aug 28
Last Quarter

Hourly Weather History & Observations

Time (CDT) Temp. Heat Index Dew Point Humidity Pressure Visibility Wind Dir Wind Speed Gust Speed Precip Events Conditions
12:15 AM 73.0 °F - 73.2 °F 100% 30.05 in 10.0 mi West 9.2 mph - N/A Thunderstorm Thunderstorm
12:35 AM 73.4 °F - 73.6 °F 100% 30.05 in 7.0 mi Calm Calm - 0.01 in Thunderstorm Thunderstorm
12:55 AM 73.0 °F - 73.4 °F 100% 30.04 in 7.0 mi NE 3.5 mph - 0.02 in Thunderstorm Mostly Cloudy
1:15 AM 71.6 °F - - N/A% 30.02 in 7.0 mi East 8.1 mph - 0.04 in Thunderstorm Thunderstorm
1:35 AM 70.9 °F - - N/A% 30.02 in 10.0 mi ESE 3.5 mph - 0.05 in Thunderstorm Mostly Cloudy
1:55 AM 70.9 °F - - N/A% 30.02 in 10.0 mi Calm Calm - 0.06 in   Mostly Cloudy
2:15 AM 70.9 °F - - N/A% 30.01 in 10.0 mi East 4.6 mph - N/A   Mostly Cloudy
2:35 AM 70.9 °F - - N/A% 30.02 in 10.0 mi Calm Calm - N/A Thunderstorm Mostly Cloudy
2:55 AM 70.9 °F - - N/A% 30.01 in 10.0 mi Calm Calm - N/A   Scattered Clouds
3:15 AM 70.9 °F - - N/A% 30.00 in 10.0 mi East 5.8 mph - N/A   Scattered Clouds
3:35 AM 70.9 °F - - N/A% 29.99 in 10.0 mi East 4.6 mph - N/A   Scattered Clouds
3:55 AM 70.9 °F - - N/A% 29.99 in 10.0 mi Calm Calm - N/A   Scattered Clouds
4:15 AM 70.9 °F - - N/A% 29.99 in 10.0 mi Calm Calm - N/A   Scattered Clouds
4:35 AM 70.9 °F - - N/A% 29.99 in 10.0 mi Calm Calm - N/A   Scattered Clouds
4:55 AM 70.9 °F - - N/A% 30.00 in 10.0 mi WNW 3.5 mph - N/A Thunderstorm Scattered Clouds
5:15 AM 70.9 °F - - N/A% 29.99 in 7.0 mi Calm Calm - N/A Thunderstorm Mostly Cloudy
5:35 AM 70.9 °F - - N/A% 29.99 in 7.0 mi Calm Calm - 0.01 in   Mostly Cloudy
5:55 AM 70.9 °F - - N/A% 29.99 in 7.0 mi Calm Calm - 0.03 in   Overcast
6:15 AM 70.9 °F - - N/A% 29.98 in 7.0 mi South 6.9 mph - 0.01 in   Overcast
6:35 AM 70.9 °F - - N/A% 29.97 in 7.0 mi SSE 4.6 mph - 0.02 in   Scattered Clouds
6:55 AM 70.9 °F - - N/A% 29.97 in 7.0 mi SSE 3.5 mph - 0.02 in   Scattered Clouds
7:15 AM 70.9 °F - - N/A% 29.97 in 7.0 mi SSE 3.5 mph - N/A   Clear
7:35 AM 70.9 °F - - N/A% 29.97 in 5.0 mi South 3.5 mph - N/A   Scattered Clouds
7:55 AM 72.0 °F - - N/A% 29.96 in 7.0 mi SSE 6.9 mph - N/A   Clear
8:15 AM 73.0 °F - - N/A% 29.96 in 7.0 mi South 5.8 mph - N/A   Clear
8:35 AM 74.7 °F - - N/A% 29.96 in 7.0 mi South 6.9 mph - N/A   Clear
8:55 AM 76.1 °F - - N/A% 29.95 in 7.0 mi South 8.1 mph - N/A   Clear
9:15 AM 76.1 °F - - N/A% 29.95 in 10.0 mi SSW 9.2 mph - N/A   Clear
9:35 AM 76.6 °F - - N/A% 29.94 in 10.0 mi SSW 9.2 mph - N/A   Clear
9:55 AM 78.4 °F - 78.8 °F 100% 29.94 in 10.0 mi SSW 9.2 mph - N/A   Clear
10:15 AM 79.9 °F - 80.1 °F 100% 29.94 in 10.0 mi SSW 11.5 mph - N/A   Clear
10:35 AM 81.1 °F 90.3 °F 80.1 °F 96% 29.93 in 10.0 mi SW 12.7 mph 17.3 mph N/A   Clear
10:55 AM 81.7 °F 92.2 °F 80.4 °F 96% 29.92 in 10.0 mi SW 15.0 mph 21.9 mph N/A   Clear
11:15 AM 82.6 °F 94.3 °F 80.2 °F 93% 29.92 in 10.0 mi SSW 12.7 mph 18.4 mph N/A   Clear
11:35 AM 83.3 °F 96.4 °F 80.8 °F 92% 29.92 in 10.0 mi SW 11.5 mph 18.4 mph N/A   Clear
11:55 AM 83.5 °F 95.5 °F 79.7 °F 88% 29.92 in 10.0 mi SSW 12.7 mph - N/A   Clear
12:15 PM 84.2 °F 97.0 °F 79.7 °F 86% 29.92 in 10.0 mi SW 10.4 mph - N/A   Clear
12:35 PM 84.6 °F 97.7 °F 79.5 °F 85% 29.92 in 10.0 mi SW 11.5 mph - N/A   Clear
12:55 PM 85.3 °F 98.6 °F 79.3 °F 82% 29.91 in 10.0 mi SW 15.0 mph - N/A   Clear
1:15 PM 86.2 °F 97.4 °F 76.8 °F 74% 29.91 in 10.0 mi SW 10.4 mph - N/A   Clear
1:35 PM 87.8 °F 100.8 °F 77.9 °F 72% 29.91 in 10.0 mi SW 10.4 mph - N/A   Scattered Clouds
1:55 PM 89.8 °F 105.3 °F 78.6 °F 70% 29.91 in 10.0 mi WSW 11.5 mph 17.3 mph N/A   Scattered Clouds
2:15 PM 91.0 °F 106.9 °F 78.6 °F 67% 29.90 in 10.0 mi West 8.1 mph 17.3 mph N/A   Scattered Clouds
2:35 PM 91.0 °F 104.8 °F 77.4 °F 64% 29.90 in 10.0 mi SW 11.5 mph - N/A   Clear
2:55 PM 91.0 °F 104.2 °F 76.8 °F 63% 29.90 in 10.0 mi WSW 11.5 mph - N/A   Clear
3:15 PM 90.7 °F 103.8 °F 77.0 °F 64% 29.90 in 10.0 mi WSW 8.1 mph - N/A   Scattered Clouds
3:35 PM 88.9 °F 100.9 °F 76.5 °F 67% 29.89 in 10.0 mi West 4.6 mph - N/A   Scattered Clouds
3:55 PM 89.6 °F 102.2 °F 77.0 °F 66% 29.89 in 10.0 mi West 4.6 mph - N/A   Clear
4:15 PM 91.0 °F 106.9 °F 78.8 °F 67% 29.88 in 10.0 mi Calm Calm - N/A   Clear
4:35 PM 91.0 °F 105.5 °F 77.7 °F 65% 29.88 in 10.0 mi WSW 3.5 mph - N/A   Scattered Clouds
4:55 PM 91.0 °F 107.6 °F 79.0 °F 68% 29.87 in 10.0 mi WSW 5.8 mph - N/A   Mostly Cloudy
5:15 PM 91.0 °F 106.2 °F 78.4 °F 66% 29.87 in 10.0 mi West 3.5 mph - N/A   Scattered Clouds
5:35 PM 91.0 °F 104.8 °F 77.5 °F 64% 29.86 in 10.0 mi WSW 6.9 mph - N/A   Scattered Clouds
5:55 PM 91.0 °F 103.5 °F 76.3 °F 62% 29.86 in 10.0 mi Calm Calm - N/A   Clear
6:15 PM 91.0 °F 102.9 °F 75.9 °F 61% 29.85 in 10.0 mi Calm Calm - N/A   Clear
6:35 PM 91.0 °F 102.9 °F 75.7 °F 61% 29.84 in 10.0 mi Calm Calm - N/A   Clear
6:55 PM 91.0 °F 103.5 °F 76.5 °F 62% 29.83 in 10.0 mi SW 3.5 mph - N/A   Clear
7:15 PM 91.0 °F 104.2 °F 77.0 °F 63% 29.83 in 10.0 mi Calm Calm - N/A   Clear
7:35 PM 91.0 °F 106.9 °F 78.6 °F 67% 29.82 in 10.0 mi Calm Calm - N/A   Clear
7:55 PM 86.5 °F 100.9 °F 79.3 °F 79% 29.84 in 10.0 mi Calm Calm - N/A   Clear
8:15 PM 83.8 °F 99.2 °F 82.0 °F 94% 29.84 in 10.0 mi Calm Calm - N/A   Clear
8:35 PM 83.5 °F 100.5 °F 83.5 °F 100% 29.84 in 10.0 mi Calm Calm - N/A   Clear
8:55 PM - - - N/A% 29.85 in 10.0 mi Calm Calm - N/A   Clear
9:15 PM 82.4 °F 96.1 °F 82.4 °F 100% 29.85 in 10.0 mi ENE 4.6 mph - N/A   Clear
9:35 PM 82.4 °F 96.1 °F 82.4 °F 100% 29.84 in 10.0 mi ENE 3.5 mph - N/A   Clear
9:55 PM 82.0 °F 94.7 °F 82.0 °F 100% 29.85 in 10.0 mi East 4.6 mph - N/A   Clear
10:15 PM 81.7 °F 93.3 °F 81.9 °F 100% 29.86 in 10.0 mi Calm Calm - N/A   Clear
10:35 PM - - - N/A% 29.86 in 10.0 mi Calm Calm - N/A   Scattered Clouds
10:55 PM 81.9 °F 94.0 °F 81.9 °F 100% 29.84 in 10.0 mi SE 3.5 mph - N/A   Mostly Cloudy
11:15 PM 82.4 °F 96.1 °F 82.4 °F 100% 29.87 in 10.0 mi Calm Calm - N/A   Mostly Cloudy
11:35 PM 82.4 °F 96.1 °F 82.4 °F 100% 29.86 in 10.0 mi SSE 3.5 mph - N/A   Mostly Cloudy
11:55 PM 82.4 °F 96.1 °F 82.4 °F 100% 29.86 in 10.0 mi South 4.6 mph - N/A   Clear